Weather History for Buffalo, SD

Change the Weather History Date:

Sunday, February 3, 2013

  Actual Average Record
Temperature  
Mean Temperature 38 °F 21 °F  
Max Temperature 50 °F 32 °F 64 °F (2005)
Min Temperature 26 °F 11 °F -16 °F (2007)
Degree Days  
Heating Degree Days 27 44  
Month to date heating degree days 99 132  
Since 1 July heating degree days 4432 4771  
Cooling Degree Days 0 0  
Month to date cooling degree days 0 0  
Year to date cooling degree days 0 0  
Moisture  
Dew Point 22 °F    
Average Humidity 58    
Maximum Humidity 85    
Minimum Humidity 31    
Precipitation  
Precipitation 0.00 in 0.01 in 0.01 in (2001)
Month to date precipitation 0.01 0.03  
Year to date precipitation 0.11 0.32  
Sea Level Pressure  
Sea Level Pressure 29.88 in    
Wind  
Wind Speed 17 mph (WNW)    
Max Wind Speed 36 mph    
Max Gust Speed 40 mph    
T = Trace of Precipitation, MM = Missing Value Source: NWS Daily Summary

Daily Weather History Graph

Daily Weather History Graph

Search for Another Location

Airport:

Trip Planner

Search our weather history database for the weather conditions in past years. The results will help you decide how hot, cold, wet, or windy it might be!

Date:

Astronomy

Feb. 03, 2013 Rise Set
Actual Time 7:12 AM MST 5:04 PM MST
Civil Twilight 6:41 AM MST 5:35 PM MST
Nautical Twilight 6:05 AM MST 6:10 PM MST
Astronomical Twilight 5:31 AM MST 6:45 PM MST
Moon 12:43 AM MST (2/3) 10:40 AM MST (2/3)
Length of Visible Light 10h 54m
Length of Day
9h 51m
Waning Gibbous, 48% of the Moon is Illuminated
Feb 3
Waning Gibbous
Feb 10
New
Feb 17
First Quarter
Feb 25
Full
Mar 4
Last Quarter

Hourly Weather History & Observations

Time (MST) Temp. Windchill Dew Point Humidity Pressure Visibility Wind Dir Wind Speed Gust Speed Precip Events Conditions
12:56 AM 28.9 °F 17.3 °F 19.0 °F 67% 30.05 in - West 16.1 mph - N/A   Unknown
1:56 AM 26.1 °F 15.6 °F 19.0 °F 75% 30.04 in - West 11.5 mph - N/A   Unknown
2:56 AM 28.9 °F 16.9 °F 21.9 °F 75% 29.99 in - WSW 17.3 mph - N/A   Unknown
3:56 AM 30.0 °F 18.3 °F 21.9 °F 72% 29.98 in - West 17.3 mph - N/A   Unknown
4:56 AM 30.0 °F 17.9 °F 21.9 °F 72% 29.96 in - WSW 18.4 mph - N/A   Unknown
5:56 AM 30.0 °F 18.3 °F 21.0 °F 69% 29.94 in - WSW 17.3 mph - N/A   Unknown
6:56 AM 28.9 °F 17.7 °F 21.0 °F 72% 29.93 in - West 15.0 mph - N/A   Unknown
7:56 AM 28.9 °F 21.1 °F 19.9 °F 69% 29.90 in - West 8.1 mph - N/A   Unknown
8:56 AM 34.0 °F 26.0 °F 23.0 °F 64% 29.88 in - West 10.4 mph - N/A   Unknown
9:56 AM 39.9 °F 31.8 °F 23.0 °F 51% 29.84 in - WSW 15.0 mph - N/A   Unknown
10:56 AM 46.9 °F - 19.0 °F 33% 29.80 in - West 23.0 mph 29.9 mph N/A   Unknown
11:56 AM 48.9 °F - 19.0 °F 31% 29.78 in - West 29.9 mph 34.5 mph N/A   Unknown
12:56 PM 48.0 °F - 19.9 °F 33% 29.78 in - West 26.5 mph 31.1 mph N/A   Unknown
1:56 PM 48.0 °F - 21.0 °F 34% 29.77 in - WNW 26.5 mph 33.4 mph N/A   Unknown
2:56 PM 46.0 °F 37.4 °F 21.0 °F 37% 29.78 in - WNW 25.3 mph 36.8 mph N/A   Unknown
3:56 PM 43.0 °F 32.9 °F 21.9 °F 43% 29.79 in - WNW 27.6 mph 34.5 mph N/A   Unknown
4:56 PM 39.0 °F 29.0 °F 24.1 °F 55% 29.81 in - NW 20.7 mph - N/A   Unknown
5:56 PM 36.0 °F 26.0 °F 25.0 °F 64% 29.84 in - NW 17.3 mph - N/A   Unknown
6:56 PM 36.0 °F 25.6 °F 26.1 °F 67% 29.86 in - NW 18.4 mph - N/A   Unknown
7:56 PM 34.0 °F 24.2 °F 26.1 °F 73% 29.88 in - NW 15.0 mph - N/A   Unknown
8:56 PM 32.0 °F 22.1 °F 26.1 °F 79% 29.89 in - WNW 13.8 mph - N/A   Unknown
9:56 PM 30.0 °F - 25.0 °F 82% 29.90 in - Calm Calm - N/A   Unknown
10:56 PM 28.9 °F 21.1 °F 24.1 °F 82% 29.88 in - NNW 8.1 mph - N/A   Unknown
11:56 PM 28.0 °F 19.3 °F 24.1 °F 85% 29.87 in - North 9.2 mph - N/A   Unknown